P/2019 V2 ( Groeller )

Japanese version
Home page
Updated on December 1, 2019

---------------------------------------------------------------------

* Profile

Discovery Date November 3, 2019
Magnitude 20.7 mag
Discoverer Hannes Groeller (Mount Lemmon Survey)

* Orbital Elements

Epoch 2020 Sept. 28.0 TT = JDT 2459120.5                                        
T 2020 Oct. 3.00384 TT                                  Rudenko                 
q   5.0463211            (2000.0)            P               Q                  
n   0.04738517     Peri.  334.12393     -0.95687864     -0.28861152             
a   7.5632374      Node   189.28439     +0.28912016     -0.93522144             
e   0.3327829      Incl.   11.78990     +0.02815672     -0.20509572             
P  20.8                                                                         
From 29 observations 2019 Nov. 3-25, mean residual 0".4.                        

* Magnitudes Graph

        m1 = 9.5 + 5 log d + 10.0 log r

---------------------------------------------------------------------

The orbital elements are published on M.P.E.C. 2019-W132.
The magnitudes graphs are made with Comet for Windows.

---------------------------------------------------------------------

Copyright(C) Seiichi Yoshida (comet@aerith.net). All rights reserved.